Airfield :
LOGIN :

Register | Disclaimer

   EN    FR    IT 

 










Legend :    VFR   Marginal VFR   IFR   Intensive IFR   Very Intensive IFR
Visi :
Ceiling :
>= 8 km
>= 3000ft
5 to 8 km
1000 to 3000 ft
1500m to 5 km
500 to 1000 ft
800 to 1500m
200 to 500 ft
< 800m
< 200 ft
Symbols :   Thunderstorms  Fog  Heavy snow  Heavy precipitations  Wind > 20 kt
SIGMETs :     Misc.  Thunderstorms  Icing  Turbulence  Mountain Waves  Volcanic Ashes







- Airport Elevation : 1989 ft
- IATA code : KLV


LKKV - Karlovy Vary

CURRENT METAR :
  • 200200Z VRB01KT CAVOK 14/12 Q1012

EXPIRED METARs :
  • 200100Z VRB02KT CAVOK 15/12 Q1011
  • 200000Z 14003KT CAVOK 14/12 Q1012

TAF TAF LKKV
Valid from the 20 at 00:00 until the 21 at 06:00 UTC


192300Z 2000/2106 VRB02KT CAVOK
BECMG 2004/2006 25008KT
TEMPO 2008/2022 8000 SHRA SCT030TCU
PROB30
TEMPO 2011/2020 34012G30KT 4000 TSRA SCT025CB
No reported NOTAMs for that airfield.



MET'MAP, your aeronautical weather chart ! - Copyright ORBIFLY December 2007 - Disclaimer

ORBIFLY MET'MAP TEAM :

Programming & Development : Alexandra Zaïnal
Concept & Development : Baudouin d'Aumeries
Co-Development & Prog : Marc-Olivier Méhu
Technical & hardware support : Manuel Goepfert

Contact : metmap@orbifly.com




SOURCES & CREDITS :

   NOAA